Location: Biltmore Gardens
(41.6070°N, 83.4666°W)
Time: 15:12:51
(UTC+00:00)

Cosmos 1697 Rocket - Pass Details

Date: 14 July 2020
Orbit: 834 x 842 km, 71.0° (Epoch: 13 August)

Event Time Altitude Azimuth Distance (km) Brightness Sun altitude
Rises 07:13:50 0° 340° (NNW) 3,395 6.5 -23.2°
Reaches altitude 10° 07:16:22 10° 345° (NNW) 2,456 5.8 -23.0°
Maximum altitude 07:21:51 52° 62° (ENE) 1,032 3.4 -22.5°
Enters shadow 07:27:14 10° 138° (SE) 2,418 4.9 -22.1°
